{"data":{"norad_id":66356,"epoch":"2026-09-20T13:43:52.082112Z","epoch_age_seconds":86512,"freshness":"FRESH","line1":"1 66356U 25254J   26263.57213058  .00014018  00000+0  42516-3 0  9998","line2":"2 66356  53.1580  45.0759 0001265  76.0214 284.0929 15.34405445 48847","mean_motion":15.34405445,"eccentricity":0.0001265,"inclination_deg":53.158,"raan_deg":45.0759,"arg_perigee_deg":76.0214,"mean_anomaly_deg":284.0929,"bstar":0.00042516,"rev_number":4884,"period_min":93.84742505264,"perigee_km":461.82169232432,"apogee_km":463.55242081064,"semimajor_km":6840.8240565675,"source":"CELESTRAK","updated_at":"2026-09-21T09:00:35.880750Z"}}